Change the Weather History Date:

Wednesday, July 2, 2014

  Actual Average Record
Temperature  
Mean Temperature 70 °F 72 °F  
Max Temperature 77 °F 82 °F 102 °F (1985)
Min Temperature 62 °F 63 °F 51 °F (1887)
Degree Days  
Heating Degree Days 0 0  
Month to date heating degree days 0 0  
Since 1 June heating degree days 0 8  
Since 1 July heating degree days 0 0  
Cooling Degree Days 5 7  
Month to date cooling degree days 10 14  
Year to date cooling degree days 432 302  
Since 1 June cooling degree days 138 148  
Growing Degree Days 20 (Base 50)    
Moisture  
Dew Point 61 °F    
Average Humidity 80    
Maximum Humidity 100    
Minimum Humidity 60    
Precipitation  
Precipitation 0.00 in 0.00 in 0.00 in (2015)
Month to date precipitation 0.00 0.00  
Year to date precipitation 5.11 10.61  
Since 1 July precipitation 0.00 0.00  
Sea Level Pressure  
Sea Level Pressure 29.86 in    
Wind  
Wind Speed 2 mph (WSW)    
Max Wind Speed 9 mph    
Max Gust Speed 15 mph    
Visibility 8 miles    
Events      
T = Trace of Precipitation, MM = Missing Value Source: NWS Daily Summary

Daily Weather History Graph

Daily Weather History Graph

Search for Another Location

Airport or City:

Trip Planner

Search our weather history database for the weather conditions in past years. The results will help you decide how hot, cold, wet, or windy it might be!

Date:

Astronomy

Jul. 02, 2014 Rise Set
Actual Time 5:45 AM PDT 8:08 PM PDT
Civil Twilight 5:16 AM PDT 8:37 PM PDT
Nautical Twilight 4:41 AM PDT 9:13 PM PDT
Astronomical Twilight 4:02 AM PDT 9:52 PM PDT
Moon 10:39 AM PDT (7/2) 11:19 PM PDT (7/2)
Length of Visible Light 15h 20m
Length of Day
14h 22m
Waxing Crescent, 25% of the Moon is Illuminated
Jul 2
Waxing Crescent
Jul 5
First Quarter
Jul 12
Full
Jul 18
Last Quarter
Jul 26
New

Hourly Weather History & Observations

Time (PDT) Temp. Dew Point Humidity Pressure Visibility Wind Dir Wind Speed Gust Speed Precip Events Conditions
12:47 AM 63.0 °F 61.0 °F 93% 29.84 in 10.0 mi Calm Calm - N/A   Overcast
1:19 AM 63.0 °F 61.0 °F 93% 29.84 in 10.0 mi Calm Calm - N/A   Overcast
1:30 AM 63.0 °F 61.0 °F 93% 29.84 in 9.0 mi West 3.5 mph - N/A   Overcast
1:47 AM 63.0 °F 61.0 °F 93% 29.83 in 10.0 mi Calm Calm - N/A   Overcast
1:51 AM 63.0 °F 61.0 °F 93% 29.84 in 9.0 mi Variable 3.5 mph - N/A   Overcast
2:35 AM 63.0 °F 60.1 °F 90% 29.83 in 8.0 mi WNW 3.5 mph - N/A   Overcast
2:47 AM 63.0 °F 61.0 °F 93% 29.82 in 8.0 mi Calm Calm - N/A   Overcast
3:47 AM 62.1 °F 60.1 °F 93% 29.83 in 8.0 mi Calm Calm - N/A   Overcast
4:47 AM 63.0 °F 61.0 °F 93% 29.85 in 8.0 mi Calm Calm - N/A   Overcast
5:05 AM 63.0 °F 60.1 °F 90% 29.86 in 8.0 mi ESE 3.5 mph - N/A   Overcast
5:47 AM 63.0 °F 60.1 °F 90% 29.87 in 9.0 mi Calm Calm - N/A   Overcast
6:47 AM 63.0 °F 60.1 °F 90% 29.88 in 6.0 mi Calm Calm - N/A   Overcast
7:47 AM 63.0 °F 60.1 °F 90% 29.90 in 5.0 mi Calm Calm - N/A   Overcast
8:47 AM 66.0 °F 61.0 °F 84% 29.91 in 5.0 mi Calm Calm - N/A   Haze
8:53 AM 66.0 °F 61.0 °F 84% 29.91 in 4.0 mi Calm Calm - N/A   Haze
9:47 AM 69.1 °F 61.0 °F 75% 29.89 in 5.0 mi Calm Calm - N/A   Haze
9:59 AM 71.1 °F 62.1 °F 73% 29.89 in 5.0 mi Calm Calm - N/A   Haze
10:47 AM 72.0 °F 61.0 °F 68% 29.89 in 5.0 mi Calm Calm - N/A   Haze
11:47 AM 73.9 °F 62.1 °F 66% 29.89 in 7.0 mi Calm Calm - N/A   Clear
12:47 PM 77.0 °F 63.0 °F 62% 29.89 in 7.0 mi Variable 4.6 mph - N/A   Clear
1:47 PM 73.0 °F 62.1 °F 68% 29.89 in 10.0 mi Variable 5.8 mph - N/A   Clear
2:47 PM 73.9 °F 62.1 °F 66% 29.88 in 10.0 mi West 8.1 mph - N/A   Clear
3:47 PM 72.0 °F 61.0 °F 68% 29.86 in 10.0 mi SW 5.8 mph - N/A   Clear
4:47 PM 71.1 °F 61.0 °F 70% 29.84 in 10.0 mi Variable 4.6 mph - N/A   Clear
5:47 PM 70.0 °F 61.0 °F 73% 29.83 in 10.0 mi West 5.8 mph - N/A   Clear
6:47 PM 69.1 °F 61.0 °F 75% 29.83 in 10.0 mi WSW 3.5 mph - N/A   Clear
7:47 PM 66.0 °F 61.0 °F 84% 29.84 in 10.0 mi Variable 3.5 mph - N/A   Clear
8:47 PM 64.9 °F 61.0 °F 87% 29.85 in 10.0 mi Calm Calm - N/A   Clear
9:47 PM 64.0 °F 62.1 °F 93% 29.87 in 10.0 mi Variable 3.5 mph - N/A   Clear
10:04 PM 64.0 °F 62.1 °F 93% 29.88 in 10.0 mi WNW 3.5 mph - N/A   Partly Cloudy
10:25 PM 64.0 °F 62.1 °F 93% 29.88 in 9.0 mi Variable 3.5 mph - N/A   Mostly Cloudy
10:47 PM 64.0 °F 62.1 °F 93% 29.87 in 9.0 mi Calm Calm - N/A   Overcast
11:47 PM 63.0 °F 62.1 °F 97% 29.87 in 8.0 mi Calm Calm - N/A   Mostly Cloudy
11:58 PM 63.0 °F 62.1 °F 97% 29.88 in 8.0 mi Calm Calm - N/A   Scattered Clouds